Location: Lynch Observatory
(39.9540°N, 75.1861°W)
Time: 22:35:08

N. Korean satellite - Visible Passes

Search period start: 23 March 2018 00:00
Search period end: 02 April 2018 00:00
Orbit: 460 x 512 km, 97.2° (Epoch: 23 March)

Date Brightness Start Highest point End Pass type
(mag) Time Alt. Az. Time Alt. Az. Time Alt. Az.
24 Mar 10.1 19:59:33 10° WSW 20:01:20 13° W 20:03:09 10° WNW visible
28 Mar 10.1 19:57:29 10° SW 19:59:27 14° W 20:01:26 10° WNW visible
01 Apr 10.0 19:55:25 10° SW 19:57:31 14° W 19:59:39 10° WNW visible
